Location: Brno
(49.2000°N, 16.6330°E)
Time: 03:05:40
(UTC+02:00)

ISS - Visible Passes

Search period start: 21 May 2024 00:00
Search period end: 31 May 2024 00:00
Orbit: 409 x 414 km, 51.6° (Epoch: 20 May)

Date Brightness Start Highest point End Pass type
(mag) Time Alt. Az. Time Alt. Az. Time Alt. Az.
21 May -3.8 22:35:20 10° WNW 22:38:39 67° SSW 22:40:02 31° SE visible
22 May -3.8 21:45:18 10° WNW 21:48:39 88° NNE 21:51:45 12° ESE visible
22 May -2.2 23:22:18 10° W 23:24:31 22° SW 23:24:31 22° SW visible
23 May -2.9 22:32:00 10° W 22:35:05 35° SSW 22:36:13 26° S visible
24 May -3.4 21:41:48 10° WNW 21:45:03 53° SSW 21:47:53 13° SE visible
24 May -1.2 23:20:05 10° WSW 23:20:39 11° SW 23:20:39 11° SW visible
25 May -1.8 22:28:51 10° W 22:31:09 18° SW 22:32:19 15° SSW visible
26 May -2.3 21:38:15 10° W 21:41:07 27° SW 21:43:58 10° SSE visible
28 May -1.3 21:35:07 10° WSW 21:36:49 13° SW 21:38:31 10° SSW visible
